sat.trackr.live / text

‹ back to catalog

ONEWEB-0012

NORAD 44057 · 2019-010A

PAYLOAD ACTIVE UNKNOWN

§ Identity

Operator
Country
UK
Launch date
2019-02-27
Launch site
FRGUI
Launch vehicle
Mass (kg)
RCS (m²)

Purposes: comms

External: N2YO · Heavens-Above · Gunter

§ Orbital elements

Epoch: 2026-09-20T04:09:40.021632Z

Period
109.37 min
Inclination
87.9147°
Eccentricity
0.0002489
Mean motion
13.16594043 rev/d
Perigee alt
1,195.9 km
Apogee alt
1,199.6 km
Semi-major
7,575.9 km
B*
5.5715e-6
RAAN
209.9231°
Arg perigee
82.7853°
Mean anomaly
277.3561°
Rev number
36,406

§ Raw data

ONEWEB-00121 44057U 19010A   26263.17337988  .00000015  00000+0  55715-5 0  99992 44057  87.9147 209.9231 0002489  82.7853 277.3561 13.16594043364066

JSON: /api/v1/satellites/44057 · /tle

For live sub-satellite position, see the globe view (requires WebGL).

§ Visibility from observer

Set your observer location to see the next 7 days of passes ≥ 10°. The values pass through the URL so the page stays shareable.

No JS? Fill the form by hand. The geolocation button needs JavaScript.